Time,TemperatureF,DewpointF,PressureIn,WindDirection,WindDirectionDegrees,WindSpeedMPH,WindSpeedGustMPH,Humidity,HourlyPrecipIn,Conditions,Clouds,dailyrainin,SoftwareType,DateUTC
2013-04-17 00:00:00,55.7,51.1,-100.00,WSW,251,8.3,17.0,84,0.00,,,-99.99,HOBO +U30 +Weather +,2013-04-17 04:00:00,
2013-04-17 00:15:00,55.7,51.2,-100.00,WSW,253,8.7,17.0,84,0.00,,,-99.99,HOBO +U30 +Weather +,2013-04-17 04:15:00,
2013-04-17 00:30:00,55.7,51.2,-100.00,WSW,254,8.3,18.6,84,0.00,,,-99.99,HOBO +U30 +Weather +,2013-04-17 04:30:00,
2013-04-17 00:45:00,55.6,51.3,-100.00,West,260,8.3,17.0,85,0.00,,,-99.99,HOBO +U30 +Weather +,2013-04-17 04:45:00,
2013-04-17 01:00:00,55.5,51.5,-100.00,West,274,5.4,12.1,86,0.00,,,-99.99,HOBO +U30 +Weather +,2013-04-17 05:00:00,
2013-04-17 01:15:00,54.3,51.6,-100.00,West,267,4.9,13.0,90,0.00,,,-99.99,HOBO +U30 +Weather +,2013-04-17 05:15:00,
2013-04-17 01:30:00,53.9,51.8,-100.00,WSW,250,4.5,10.3,92,0.30,,,-99.99,HOBO +U30 +Weather +,2013-04-17 05:30:00,
2013-04-17 01:45:00,53.8,51.8,-100.00,WSW,257,4.9,9.6,93,0.00,,,-99.99,HOBO +U30 +Weather +,2013-04-17 05:45:00,
2013-04-17 02:00:00,54.0,52.1,-100.00,West,270,5.4,11.6,93,0.00,,,-99.99,HOBO +U30 +Weather +,2013-04-17 06:00:00,
2013-04-17 02:15:00,53.9,52.0,-100.00,WNW,288,5.8,11.6,93,0.00,,,-99.99,HOBO +U30 +Weather +,2013-04-17 06:15:00,
2013-04-17 02:30:00,54.2,52.0,-100.00,WNW,299,6.7,13.0,92,0.00,,,-99.99,HOBO +U30 +Weather +,2013-04-17 06:30:00,
2013-04-17 02:45:00,54.4,51.5,-100.00,WNW,295,6.7,12.5,90,0.00,,,-99.99,HOBO +U30 +Weather +,2013-04-17 06:45:00,
2013-04-17 03:00:00,53.8,51.1,-100.00,WNW,293,5.8,10.7,90,0.00,,,-99.99,HOBO +U30 +Weather +,2013-04-17 07:00:00,
2013-04-17 03:15:00,53.7,50.3,-100.00,NW,305,5.8,8.7,87,0.00,,,-99.99,HOBO +U30 +Weather +,2013-04-17 07:15:00,
2013-04-17 03:30:00,53.5,49.1,-100.00,NW,310,6.3,11.2,84,0.00,,,-99.99,HOBO +U30 +Weather +,2013-04-17 07:30:00,
2013-04-17 03:45:00,53.2,48.0,-100.00,NW,320,5.8,11.6,82,0.00,,,-99.99,HOBO +U30 +Weather +,2013-04-17 07:45:00,
2013-04-17 04:00:00,52.9,45.3,-100.00,NW,316,7.4,13.0,75,0.00,,,-99.99,HOBO +U30 +Weather +,2013-04-17 08:00:00,
2013-04-17 04:15:00,51.9,43.9,-100.00,NW,319,6.7,13.2,73,0.00,,,-99.99,HOBO +U30 +Weather +,2013-04-17 08:15:00,
2013-04-17 04:30:00,51.1,43.4,-100.00,NW,320,6.3,15.4,74,0.00,,,-99.99,HOBO +U30 +Weather +,2013-04-17 08:30:00,
2013-04-17 04:45:00,50.5,43.5,-100.00,NW,317,5.8,12.5,76,0.00,,,-99.99,HOBO +U30 +Weather +,2013-04-17 08:45:00,
2013-04-17 05:00:00,50.4,43.3,-100.00,NW,314,5.4,9.2,76,0.00,,,-99.99,HOBO +U30 +Weather +,2013-04-17 09:00:00,
2013-04-17 05:15:00,49.8,43.7,-100.00,NW,312,4.9,8.7,79,0.00,,,-99.99,HOBO +U30 +Weather +,2013-04-17 09:15:00,
2013-04-17 05:30:00,49.7,43.7,-100.00,NW,312,4.5,7.4,79,0.00,,,-99.99,HOBO +U30 +Weather +,2013-04-17 09:30:00,
2013-04-17 05:45:00,49.7,43.7,-100.00,NW,319,4.5,11.2,79,0.00,,,-99.99,HOBO +U30 +Weather +,2013-04-17 09:45:00,
2013-04-17 06:00:00,49.6,43.6,-100.00,NNW,329,2.9,7.2,79,0.00,,,-99.99,HOBO +U30 +Weather +,2013-04-17 10:00:00,
2013-04-17 06:15:00,49.2,43.5,-100.00,NNW,330,2.5,6.7,80,0.00,,,-99.99,HOBO +U30 +Weather +,2013-04-17 10:15:00,
2013-04-17 06:30:00,48.9,43.4,-100.00,NNW,327,3.4,7.4,81,0.00,,,-99.99,HOBO +U30 +Weather +,2013-04-17 10:30:00,
2013-04-17 06:45:00,49.3,43.1,-100.00,NNW,333,2.9,8.7,79,0.00,,,-99.99,HOBO +U30 +Weather +,2013-04-17 10:45:00,
2013-04-17 07:00:00,49.6,42.1,-100.00,NNW,331,3.8,8.7,75,0.00,,,-99.99,HOBO +U30 +Weather +,2013-04-17 11:00:00,
2013-04-17 07:15:00,49.7,41.6,-100.00,NNW,330,3.8,9.2,73,0.00,,,-99.99,HOBO +U30 +Weather +,2013-04-17 11:15:00,
2013-04-17 07:30:00,50.4,42.0,-100.00,NNW,337,2.9,7.2,72,0.00,,,-99.99,HOBO +U30 +Weather +,2013-04-17 11:30:00,
2013-04-17 07:45:00,51.1,42.4,-100.00,North,1,3.4,9.6,72,0.00,,,-99.99,HOBO +U30 +Weather +,2013-04-17 11:45:00,
2013-04-17 08:00:00,51.4,41.9,-100.00,NNW,338,3.4,8.3,69,0.00,,,-99.99,HOBO +U30 +Weather +,2013-04-17 12:00:00,
2013-04-17 08:15:00,51.5,41.9,-100.00,NNW,334,4.9,12.1,69,0.00,,,-99.99,HOBO +U30 +Weather +,2013-04-17 12:15:00,
2013-04-17 08:30:00,52.2,41.2,-100.00,NNW,333,4.5,12.1,65,0.00,,,-99.99,HOBO +U30 +Weather +,2013-04-17 12:30:00,
2013-04-17 08:45:00,52.6,41.1,-100.00,NNW,334,4.9,11.6,64,0.00,,,-99.99,HOBO +U30 +Weather +,2013-04-17 12:45:00,
2013-04-17 09:00:00,53.2,40.4,-100.00,NW,324,5.4,15.0,61,0.00,,,-99.99,HOBO +U30 +Weather +,2013-04-17 13:00:00,
2013-04-17 09:15:00,53.9,40.5,-100.00,NNW,329,4.9,12.1,60,0.00,,,-99.99,HOBO +U30 +Weather +,2013-04-17 13:15:00,
2013-04-17 09:30:00,54.5,40.7,-100.00,NNW,330,4.9,10.7,59,0.00,,,-99.99,HOBO +U30 +Weather +,2013-04-17 13:30:00,
2013-04-17 09:45:00,55.3,40.5,-100.00,NNW,330,4.9,15.0,57,0.00,,,-99.99,HOBO +U30 +Weather +,2013-04-17 13:45:00,
2013-04-17 10:00:00,54.5,38.4,-100.00,NNW,329,5.4,13.2,54,0.00,,,-99.99,HOBO +U30 +Weather +,2013-04-17 14:00:00,
2013-04-17 10:15:00,55.5,39.5,-100.00,NW,326,4.9,10.3,54,0.00,,,-99.99,HOBO +U30 +Weather +,2013-04-17 14:15:00,
2013-04-17 10:30:00,56.1,38.6,-100.00,NW,317,2.9,11.2,51,0.00,,,-99.99,HOBO +U30 +Weather +,2013-04-17 14:30:00,
2013-04-17 10:45:00,55.7,38.1,-100.00,NW,323,4.9,10.1,51,0.00,,,-99.99,HOBO +U30 +Weather +,2013-04-17 14:45:00,
2013-04-17 11:00:00,57.3,38.2,-100.00,WNW,302,5.8,11.2,48,0.00,,,-99.99,HOBO +U30 +Weather +,2013-04-17 15:00:00,
2013-04-17 11:15:00,57.4,37.7,-100.00,NW,305,7.2,13.0,47,0.00,,,-99.99,HOBO +U30 +Weather +,2013-04-17 15:15:00,
2013-04-17 11:30:00,59.7,36.5,-100.00,NNW,327,3.4,13.6,41,0.00,,,-99.99,HOBO +U30 +Weather +,2013-04-17 15:30:00,
2013-04-17 11:45:00,59.4,33.9,-100.00,North,351,4.5,10.3,38,0.00,,,-99.99,HOBO +U30 +Weather +,2013-04-17 15:45:00,
2013-04-17 12:00:00,60.8,35.5,-100.00,NNW,347,4.3,10.1,38,0.00,,,-99.99,HOBO +U30 +Weather +,2013-04-17 16:00:00,
2013-04-17 12:15:00,60.3,34.3,-100.00,NNW,338,4.9,11.6,37,0.00,,,-99.99,HOBO +U30 +Weather +,2013-04-17 16:15:00,
2013-04-17 12:30:00,61.6,36.8,-100.00,NW,314,6.7,13.0,39,0.00,,,-99.99,HOBO +U30 +Weather +,2013-04-17 16:30:00,
2013-04-17 12:45:00,62.5,35.0,-100.00,NNW,330,4.5,10.1,35,0.00,,,-99.99,HOBO +U30 +Weather +,2013-04-17 16:45:00,
2013-04-17 13:00:00,61.8,34.2,-100.00,North,0,4.5,10.7,35,0.00,,,-99.99,HOBO +U30 +Weather +,2013-04-17 17:00:00,
2013-04-17 13:15:00,62.4,34.8,-100.00,NNW,340,4.3,11.2,35,0.00,,,-99.99,HOBO +U30 +Weather +,2013-04-17 17:15:00,
2013-04-17 13:30:00,62.1,32.8,-100.00,North,355,4.9,12.1,33,0.00,,,-99.99,HOBO +U30 +Weather +,2013-04-17 17:30:00,
2013-04-17 13:45:00,62.6,32.8,-100.00,NNW,348,4.3,9.6,32,0.00,,,-99.99,HOBO +U30 +Weather +,2013-04-17 17:45:00,
2013-04-17 14:00:00,64.7,33.3,-100.00,North,351,3.8,9.6,30,0.00,,,-99.99,HOBO +U30 +Weather +,2013-04-17 18:00:00,
2013-04-17 14:15:00,63.0,34.5,-100.00,North,351,2.9,12.1,34,0.00,,,-99.99,HOBO +U30 +Weather +,2013-04-17 18:15:00,
2013-04-17 14:30:00,64.4,36.4,-100.00,NNW,337,4.3,9.6,35,0.00,,,-99.99,HOBO +U30 +Weather +,2013-04-17 18:30:00,
2013-04-17 14:45:00,64.8,35.1,-100.00,NW,321,3.4,10.7,33,0.00,,,-99.99,HOBO +U30 +Weather +,2013-04-17 18:45:00,
2013-04-17 15:00:00,65.4,34.3,-100.00,NW,324,3.8,10.7,31,0.00,,,-99.99,HOBO +U30 +Weather +,2013-04-17 19:00:00,
2013-04-17 15:15:00,65.1,34.8,-100.00,WNW,303,4.3,10.7,32,0.00,,,-99.99,HOBO +U30 +Weather +,2013-04-17 19:15:00,
2013-04-17 15:30:00,64.7,34.1,-100.00,NNW,344,4.3,10.1,31,0.00,,,-99.99,HOBO +U30 +Weather +,2013-04-17 19:30:00,
2013-04-17 15:45:00,65.1,32.6,-100.00,North,11,3.8,7.4,29,0.00,,,-99.99,HOBO +U30 +Weather +,2013-04-17 19:45:00,
2013-04-17 16:00:00,65.8,34.8,-100.00,NNW,337,4.5,11.6,31,0.00,,,-99.99,HOBO +U30 +Weather +,2013-04-17 20:00:00,
2013-04-17 16:15:00,65.1,33.4,-100.00,NW,310,3.8,10.1,30,0.00,,,-99.99,HOBO +U30 +Weather +,2013-04-17 20:15:00,
2013-04-17 16:30:00,64.9,33.5,-100.00,WNW,300,0.0,2.0,30,0.00,,,-99.99,HOBO +U30 +Weather +,2013-04-17 20:30:00,
2013-04-17 16:45:00,65.8,34.3,-100.00,NW,323,0.4,8.7,30,0.00,,,-99.99,HOBO +U30 +Weather +,2013-04-17 20:45:00,
2013-04-17 17:00:00,64.2,34.6,-100.00,NW,306,5.8,10.7,33,0.00,,,-99.99,HOBO +U30 +Weather +,2013-04-17 21:00:00,
2013-04-17 17:15:00,64.3,33.4,-100.00,NW,319,4.9,13.2,31,0.00,,,-99.99,HOBO +U30 +Weather +,2013-04-17 21:15:00,
2013-04-17 17:30:00,63.9,34.0,-100.00,NW,312,5.4,10.7,32,0.00,,,-99.99,HOBO +U30 +Weather +,2013-04-17 21:30:00,
2013-04-17 17:45:00,64.2,33.1,-100.00,NW,324,3.8,9.2,31,0.00,,,-99.99,HOBO +U30 +Weather +,2013-04-17 21:45:00,
2013-04-17 18:00:00,63.5,33.5,-100.00,NW,317,4.5,10.3,32,0.00,,,-99.99,HOBO +U30 +Weather +,2013-04-17 22:00:00,
2013-04-17 18:15:00,62.3,32.7,-100.00,NW,324,0.0,0.0,32,0.00,,,-99.99,HOBO +U30 +Weather +,2013-04-17 22:15:00,
2013-04-17 18:30:00,61.5,32.4,-100.00,NNW,329,0.0,0.0,33,0.00,,,-99.99,HOBO +U30 +Weather +,2013-04-17 22:30:00,
2013-04-17 18:45:00,60.8,32.4,-100.00,NNW,337,0.0,0.0,34,0.00,,,-99.99,HOBO +U30 +Weather +,2013-04-17 22:45:00,
2013-04-17 19:00:00,60.2,32.5,-100.00,North,352,0.0,0.0,35,0.00,,,-99.99,HOBO +U30 +Weather +,2013-04-17 23:00:00,
2013-04-17 19:15:00,59.3,30.5,-100.00,NNE,17,0.4,6.7,33,0.00,,,-99.99,HOBO +U30 +Weather +,2013-04-17 23:15:00,
2013-04-17 19:30:00,57.5,30.3,-100.00,NE,51,1.3,4.9,35,0.00,,,-99.99,HOBO +U30 +Weather +,2013-04-17 23:30:00,
2013-04-17 19:45:00,57.2,30.3,-100.00,NE,38,2.0,6.3,35,0.00,,,-99.99,HOBO +U30 +Weather +,2013-04-17 23:45:00,
2013-04-17 20:00:00,56.3,30.3,-100.00,NE,39,2.0,8.3,36,0.00,,,-99.99,HOBO +U30 +Weather +,2013-04-18 00:00:00,
2013-04-17 20:15:00,55.3,30.4,-100.00,North,10,1.3,6.3,38,0.00,,,-99.99,HOBO +U30 +Weather +,2013-04-18 00:15:00,
2013-04-17 20:30:00,53.9,30.7,-100.00,North,352,1.3,5.8,40,0.00,,,-99.99,HOBO +U30 +Weather +,2013-04-18 00:30:00,
2013-04-17 20:45:00,52.4,30.8,-100.00,North,10,0.9,4.5,43,0.00,,,-99.99,HOBO +U30 +Weather +,2013-04-18 00:45:00,
2013-04-17 21:00:00,53.3,30.5,-100.00,NE,45,1.3,4.9,41,0.00,,,-99.99,HOBO +U30 +Weather +,2013-04-18 01:00:00,
2013-04-17 21:15:00,52.5,30.4,-100.00,ENE,72,0.9,3.8,42,0.00,,,-99.99,HOBO +U30 +Weather +,2013-04-18 01:15:00,
2013-04-17 21:30:00,52.3,30.4,-100.00,NE,52,1.3,4.5,42,0.00,,,-99.99,HOBO +U30 +Weather +,2013-04-18 01:30:00,
2013-04-17 21:45:00,51.7,30.2,-100.00,NE,39,1.3,5.4,43,0.00,,,-99.99,HOBO +U30 +Weather +,2013-04-18 01:45:00,
2013-04-17 22:00:00,51.0,30.6,-100.00,NE,39,1.3,5.4,45,0.00,,,-99.99,HOBO +U30 +Weather +,2013-04-18 02:00:00,
2013-04-17 22:15:00,51.3,30.2,-100.00,ENE,59,1.6,6.3,44,0.00,,,-99.99,HOBO +U30 +Weather +,2013-04-18 02:15:00,
2013-04-17 22:30:00,50.5,29.9,-100.00,NE,35,1.6,5.8,45,0.00,,,-99.99,HOBO +U30 +Weather +,2013-04-18 02:30:00,
2013-04-17 22:45:00,49.8,29.9,-100.00,ENE,67,1.6,6.3,46,0.00,,,-99.99,HOBO +U30 +Weather +,2013-04-18 02:45:00,
2013-04-17 23:00:00,49.5,29.4,-100.00,ENE,76,1.6,5.8,45,0.00,,,-99.99,HOBO +U30 +Weather +,2013-04-18 03:00:00,
2013-04-17 23:15:00,48.8,28.8,-100.00,ENE,73,1.3,3.8,45,0.00,,,-99.99,HOBO +U30 +Weather +,2013-04-18 03:15:00,
2013-04-17 23:30:00,48.7,28.7,-100.00,ENE,65,0.4,3.4,45,0.00,,,-99.99,HOBO +U30 +Weather +,2013-04-18 03:30:00,
2013-04-17 23:45:00,47.1,28.7,-100.00,ENE,62,0.4,2.0,48,0.00,,,-99.99,HOBO +U30 +Weather +,2013-04-18 03:45:00,